GPS BIIRM-4 (PRN 15)

Last updated on Tue Dec 03 2024 00:03:09 GMT+0000 (Coordinated Universal Time)

1 32260U 07047A 24337.32527865 .00000015 00000+0 00000+0 0 9992 2 32260 53.7047 103.2852 0159443 78.9648 282.7926 2.00556411125547
UTC large
Height (km)
Speed (km/s)
/
Latitude / Longitude
Inclination (degrees)
Orbital Period (minutes)
Azimuth
Elevation
Range (km)
Doppler Factor

Next 0 passes for location: London (51.5072 / 0.1276)

Sorry there are no passes over London.